Flag for U.S.A. Weather past 2 weeks in Austin, Texas, U.S.A.

Now
94 °F

Passing clouds.


Feels Like: 101 °F
Forecast: 74 / 98 °F
Wind: 9 mph from South

Location: Camp Mabry / Austin City

Current Time: Jul 28, 2015 at 1:43:24 PM

Latest Report: Jul 28, 2015 at 12:51 PM


Visibility: 10 mi

Pressure: 29.93 "Hg

Humidity: 48%

Dew point: 71 °F

Location of AustinLocation

Historic Weather in Austin — Graph

°F

Austin temperature yesterday

Maximum temperature yesterday: 99 °F (at 3:51 PM)
Minimum temperature yesterday: 77 °F (at 4:51 AM)
Average temperature yesterday: 87 °F

Past Weeks' High & Low Weather Summary

 TemperatureHumidityPressure
High99 °F (Jul 27, 3:51 PM)94% (Jul 21, 6:51 AM)30.03 "Hg (Jul 21, 6:51 AM)
Low75 °F (Jul 14, 3:51 AM)34% (Jul 14, 4:51 PM)29.79 "Hg (Jul 21, 6:51 PM)
Average86 °F64%29.91 "Hg
* Reported Jul 13 11:51 AM — Jul 28 11:51 AM, Austin, Weather by CustomWeather, © 2015

Note: Actual official high and low records may vary slightly from our data, if they occured in-between our weather recording intervals... More about our weather records

Advertising

Austin weather history for previous 24 hours

 ConditionsComfort  
Time TempWeatherWind HumidityBarometerVisibility
11:51 AM
Tue, Jul 28
91 °FPartly sunny.7 mph54%29.94 "Hg10 mi
10:51 AM86 °FScattered clouds.7 mph65%29.95 "Hg10 mi
9:51 AM86 °FMostly cloudy.5 mph67%29.96 "Hg10 mi
8:51 AM80 °FMostly cloudy.8 mph81%29.96 "Hg9 mi
8:03 AM78 °FPartly sunny.8 mph87%29.98 "Hg7 mi
7:51 AM78 °FFog.5 mph87%29.93 "Hg6 mi
6:51 AM77 °FMostly cloudy.7 mph90%29.93 "Hg8 mi
5:51 AM78 °FMostly cloudy.5 mph87%29.92 "Hg8 mi
4:51 AM78 °FOvercast.5 mph87%29.90 "Hg8 mi
3:51 AM79 °FOvercast.7 mph88%29.90 "Hg8 mi
2:51 AM79 °FPassing clouds.7 mph84%29.91 "Hg9 mi
1:51 AM79 °FPassing clouds.6 mph84%29.93 "Hg10 mi
12:51 AM81 °FClear.5 mph77%29.92 "Hg10 mi
11:51 PM
Mon, Jul 27
83 °FClear.8 mph72%29.92 "Hg10 mi
10:51 PM85 °FClear.9 mph65%29.90 "Hg10 mi
9:51 PM88 °FClear.7 mph55%29.87 "Hg10 mi
8:51 PM91 °FScattered clouds.13 mph45%29.84 "Hg10 mi
7:51 PM92 °FPassing clouds.8 mph43%29.82 "Hg10 mi
6:51 PM94 °FPassing clouds.6 mph40%29.81 "Hg10 mi
5:51 PM96 °FPassing clouds.7 mph38%29.81 "Hg10 mi
4:51 PM98 °FSunny.6 mph35%29.83 "Hg10 mi
3:51 PM99 °FScattered clouds.6 mph37%29.84 "Hg10 mi
2:51 PM96 °FPassing clouds.6 mph38%29.87 "Hg10 mi
1:51 PM97 °FSunny.5 mph39%29.89 "Hg10 mi
Weather by CustomWeather, © 2015

See weather overviewHow to use our weather pages